• In Uzbekistan
  • List of Countries
  • For 7 days
  • Water Temperature
  • Satellite Maps
  • Weather Map
  • Weather Widgets
  • user-avatar
    Login

    Hourly Weather Rozdollya

    Today, 17 December, Sunday

    Time Temperature Precipitation Wind Pressure Humidity
    00:00 +6°C° 0 mm 7 mps 748 mmHg 73%
    01:00 +5°C° 0 mm 7 mps 748 mmHg 74%
    02:00 +5°C° 0 mm 7 mps 748 mmHg 76%
    03:00 +5°C° 0 mm 7 mps 748 mmHg 76%
    04:00 +5°C° 0 mm 7 mps 748 mmHg 75%
    05:00 +6°C° 0 mm 7 mps 748 mmHg 75%
    06:00 +6°C° 0 mm 7 mps 748 mmHg 75%
    07:00 +6°C° 0 mm 7 mps 748 mmHg 75%
    08:00 +6°C° 0 mm 7 mps 748 mmHg 75%
    09:00 +6°C° 0.2 mm 7 mps 748 mmHg 76%
    10:00 +6°C° 0.2 mm 7 mps 748 mmHg 76%
    11:00 +6°C° 0.2 mm 7 mps 748 mmHg 77%
    12:00 +6°C° 0.4 mm 7 mps 749 mmHg 79%
    13:00 +8°C° 0.4 mm 7 mps 749 mmHg 81%
    14:00 +8°C° 0.4 mm 7 mps 749 mmHg 83%
    15:00 +8°C° 0.5 mm 6 mps 749 mmHg 84%
    16:00 +8°C° 0.5 mm 6 mps 749 mmHg 86%
    17:00 +7°C° 0.5 mm 6 mps 749 mmHg 87%
    18:00 +7°C° 0.1 mm 6 mps 749 mmHg 85%
    19:00 +7°C° 0.1 mm 6 mps 748 mmHg 82%
    20:00 +7°C° 0.1 mm 6 mps 748 mmHg 80%
    21:00 +7°C° 0 mm 6 mps 748 mmHg 78%
    22:00 +7°C° 0 mm 6 mps 748 mmHg 75%
    23:00 +7°C° 0 mm 6 mps 748 mmHg 72%

    Tomorrow, 18 December, Monday

    Time Temperature Precipitation Wind Pressure Humidity
    00:00 +7°C° 0.1 mm 6 mps 748 mmHg 73%
    01:00 +7°C° 0.1 mm 6 mps 748 mmHg 74%
    02:00 +5°C° 0.1 mm 6 mps 748 mmHg 75%
    03:00 +5°C° 0.2 mm 7 mps 747 mmHg 76%
    04:00 +5°C° 0.2 mm 7 mps 747 mmHg 77%
    05:00 +5°C° 0.2 mm 7 mps 746 mmHg 78%
    06:00 +5°C° 1.2 mm 7 mps 746 mmHg 80%
    07:00 +5°C° 1.2 mm 8 mps 746 mmHg 82%
    08:00 +5°C° 1.2 mm 8 mps 746 mmHg 84%
    09:00 +6°C° 0.7 mm 8 mps 746 mmHg 84%
    10:00 +6°C° 0.7 mm 8 mps 746 mmHg 83%
    11:00 +6°C° 0.7 mm 8 mps 746 mmHg 82%
    12:00 +6°C° 0.1 mm 7 mps 746 mmHg 81%
    13:00 +8°C° 0.1 mm 7 mps 746 mmHg 80%
    14:00 +8°C° 0.1 mm 7 mps 746 mmHg 79%
    15:00 +6°C° 0 mm 7 mps 746 mmHg 77%
    16:00 +5°C° 0 mm 7 mps 747 mmHg 75%
    17:00 +4°C° 0 mm 6 mps 747 mmHg 73%
    18:00 +3°C° 0 mm 6 mps 748 mmHg 73%
    19:00 +3°C° 0 mm 6 mps 748 mmHg 73%
    20:00 +3°C° 0 mm 5 mps 749 mmHg 73%
    21:00 +2°C° 0 mm 5 mps 749 mmHg 74%
    22:00 +2°C° 0 mm 5 mps 750 mmHg 75%
    23:00 +1°C° 0 mm 5 mps 750 mmHg 76%

    Day after tomorrow, 19 December, Tuesday

    Time Temperature Precipitation Wind Pressure Humidity
    00:00 +1°C° 0 mm 5 mps 750 mmHg 77%
    01:00 0°C° 0 mm 4 mps 751 mmHg 77%
    02:00 0°C° 0 mm 4 mps 751 mmHg 77%
    03:00 0°C° 0 mm 4 mps 751 mmHg 77%
    04:00 -1°C° 0 mm 4 mps 751 mmHg 77%
    05:00 -1°C° 0 mm 4 mps 751 mmHg 77%
    06:00 -1°C° 0 mm 4 mps 752 mmHg 78%
    07:00 0°C° 0 mm 3 mps 752 mmHg 78%
    08:00 0°C° 0 mm 3 mps 753 mmHg 78%
    09:00 -1°C° 0 mm 4 mps 753 mmHg 75%
    10:00 -1°C° 0 mm 4 mps 753 mmHg 72%
    11:00 0°C° 0 mm 5 mps 753 mmHg 69%
    12:00 0°C° 0 mm 5 mps 754 mmHg 69%
    13:00 0°C° 0 mm 5 mps 754 mmHg 68%
    14:00 0°C° 0 mm 5 mps 754 mmHg 67%
    15:00 -1°C° 0 mm 4 mps 754 mmHg 70%
    16:00 -1°C° 0 mm 4 mps 754 mmHg 73%
    17:00 -1°C° 0 mm 3 mps 755 mmHg 76%
    18:00 -1°C° 0 mm 3 mps 755 mmHg 77%
    19:00 -1°C° 0 mm 3 mps 755 mmHg 79%
    20:00 -2°C° 0 mm 3 mps 756 mmHg 80%
    21:00 -2°C° 0 mm 3 mps 756 mmHg 80%
    22:00 -2°C° 0 mm 3 mps 756 mmHg 80%
    23:00 -2°C° 0 mm 3 mps 757 mmHg 80%

    20 December, Wednesday

    Time Temperature Precipitation Wind Pressure Humidity
    00:00 -2°C° 0 mm 3 mps 757 mmHg 80%
    01:00 -3°C° 0 mm 2 mps 757 mmHg 80%
    02:00 -3°C° 0 mm 2 mps 757 mmHg 81%
    03:00 -3°C° 0 mm 2 mps 757 mmHg 81%
    04:00 -3°C° 0 mm 2 mps 757 mmHg 81%
    05:00 -3°C° 0 mm 2 mps 758 mmHg 81%
    06:00 -3°C° 0 mm 2 mps 758 mmHg 81%
    07:00 -3°C° 0 mm 2 mps 758 mmHg 80%
    08:00 -3°C° 0 mm 2 mps 759 mmHg 79%
    09:00 -3°C° 0 mm 2 mps 759 mmHg 74%
    10:00 -2°C° 0 mm 2 mps 759 mmHg 69%
    11:00 -2°C° 0 mm 2 mps 759 mmHg 64%
    12:00 +1°C° 0 mm 1 mps 759 mmHg 62%
    13:00 +1°C° 0 mm 1 mps 759 mmHg 60%
    14:00 +1°C° 0 mm 1 mps 759 mmHg 59%
    15:00 0°C° 0 mm 1 mps 759 mmHg 62%
    16:00 0°C° 0 mm 1 mps 759 mmHg 65%
    17:00 -1°C° 0 mm 1 mps 759 mmHg 68%
    18:00 -1°C° 0 mm 1 mps 760 mmHg 69%
    19:00 -1°C° 0 mm 1 mps 760 mmHg 70%
    20:00 -3°C° 0 mm 2 mps 760 mmHg 70%
    21:00 -3°C° 0 mm 2 mps 760 mmHg 71%
    22:00 -3°C° 0 mm 2 mps 760 mmHg 72%
    23:00 -3°C° 0 mm 2 mps 760 mmHg 72%

    21 December, Thursday

    Time Temperature Precipitation Wind Pressure Humidity
    00:00 -4°C° 0 mm 2 mps 759 mmHg 73%
    01:00 -4°C° 0 mm 2 mps 759 mmHg 74%
    02:00 -4°C° 0 mm 2 mps 759 mmHg 74%
    03:00 -4°C° 0 mm 2 mps 759 mmHg 75%
    04:00 -5°C° 0 mm 3 mps 758 mmHg 75%
    05:00 -5°C° 0 mm 3 mps 758 mmHg 75%
    06:00 -5°C° 0 mm 3 mps 758 mmHg 75%
    07:00 -5°C° 0 mm 3 mps 758 mmHg 75%
    08:00 -4°C° 0 mm 3 mps 757 mmHg 75%
    09:00 -4°C° 0 mm 3 mps 757 mmHg 72%
    10:00 -2°C° 0 mm 3 mps 756 mmHg 69%
    11:00 -2°C° 0 mm 4 mps 756 mmHg 66%
    12:00 -2°C° 0 mm 4 mps 755 mmHg 67%
    13:00 -2°C° 0 mm 4 mps 755 mmHg 69%
    14:00 -2°C° 0 mm 4 mps 754 mmHg 71%
    15:00 -2°C° 0.1 mm 4 mps 754 mmHg 75%
    16:00 -2°C° 0.1 mm 4 mps 754 mmHg 78%
    17:00 -3°C° 0.1 mm 4 mps 753 mmHg 82%
    18:00 -3°C° 0.4 mm 4 mps 753 mmHg 85%
    19:00 -3°C° 0.4 mm 4 mps 753 mmHg 87%
    20:00 -3°C° 0.4 mm 4 mps 752 mmHg 89%
    21:00 -2°C° 0.4 mm 3 mps 752 mmHg 90%
    22:00 -2°C° 0.4 mm 3 mps 752 mmHg 91%
    23:00 -2°C° 0.4 mm 3 mps 751 mmHg 91%

    22 December, Friday

    Time Temperature Precipitation Wind Pressure Humidity
    00:00 -2°C° 0.2 mm 3 mps 751 mmHg 91%
    01:00 -2°C° 0.2 mm 3 mps 751 mmHg 91%
    02:00 -2°C° 0.2 mm 3 mps 750 mmHg 91%
    03:00 -2°C° 0.1 mm 3 mps 750 mmHg 91%
    04:00 -2°C° 0.1 mm 3 mps 750 mmHg 90%
    05:00 -2°C° 0.1 mm 3 mps 750 mmHg 90%
    06:00 -2°C° 0.1 mm 3 mps 750 mmHg 89%
    07:00 -2°C° 0.1 mm 3 mps 750 mmHg 88%
    08:00 -2°C° 0.1 mm 3 mps 750 mmHg 87%
    09:00 -2°C° 0 mm 3 mps 749 mmHg 85%
    10:00 -2°C° 0 mm 3 mps 749 mmHg 83%
    11:00 -2°C° 0 mm 3 mps 749 mmHg 81%
    12:00 -1°C° 0 mm 3 mps 749 mmHg 79%
    13:00 -1°C° 0 mm 3 mps 749 mmHg 77%
    14:00 -1°C° 0 mm 2 mps 749 mmHg 75%
    15:00 -2°C° 0 mm 2 mps 749 mmHg 76%
    16:00 -3°C° 0 mm 2 mps 749 mmHg 78%
    17:00 -4°C° 0 mm 2 mps 749 mmHg 79%
    18:00 -4°C° 0 mm 2 mps 749 mmHg 80%
    19:00 -4°C° 0 mm 2 mps 749 mmHg 81%
    20:00 -5°C° 0 mm 2 mps 749 mmHg 82%
    21:00 -5°C° 0 mm 2 mps 749 mmHg 82%
    22:00 -4°C° 0 mm 2 mps 749 mmHg 83%
    23:00 -5°C° 0 mm 3 mps 749 mmHg 83%
    Show more